Regional Weather Roundup
Issued by NWS

Home | Current Version | Previous Version | Graphics & Text | Print | Product List | Glossary On
Versions: 1 2 3 4 5 6 7 8 9 10 11 12 13 14 15 16 17 18 19 20 21 22 23 24 25 26 27
000
ASUS45 KTFX 190810
RWRMT
MONTANA REGIONAL WEATHER ROUNDUP
NATIONAL WEATHER SERVICE GREAT FALLS MT
100 AM MST SUN NOV 19 2017

NOTE: "FAIR" INDICATES FEW OR NO CLOUDS BELOW 12000 FEET WITH NO
SIGNIFICANT WEATHER AND/OR OBSTRUCTIONS TO VISIBILITY.

MTZ001>007-043-190900-
WEST OF THE DIVIDE

CITY           SKY/WX    TMP DP  RH WIND       PRES   REMARKS
KALISPELL      FAIR      22  21  96 CALM      30.13S
MISSOULA       FAIR      24  20  84 SW3       30.17S
BUTTE          FAIR       9   4  80 SE5       30.13F
MULLAN PASS    FAIR      23  18  81 SW8       30.06F WCI  14
ANACONDA         N/A     30  10  43 S14G23    30.11S WCI  20
EUREKA           N/A     34  25  69 MISG      30.11F
HAMILTON         N/A     34  18  51 S5        30.14S
LIBBY            N/A     25  25 100 CALM      30.14S
RONAN            N/A     28  23  81 CALM      30.15S
$$

MTZ008-052>055-190900-
SOUTHWEST MONTANA

CITY           SKY/WX    TMP DP  RH WIND       PRES   REMARKS
BOZEMAN        FAIR      19  13  77 S9        30.14F WCI   8
DILLON         FAIR      24  15  68 S9        30.17F WCI  14
W YELLOWSTONE  MOCLDY    16  14  93 CALM      30.27S
ENNIS          CLOUDY    27  16  63 S12G21    30.23F WCI  16
$$

MTZ009-010-012-014-046-048-049-054-190900-
EAST SLOPES AND CENTRAL MONTANA

CITY           SKY/WX    TMP DP  RH WIND       PRES   REMARKS
CUT BANK       FAIR      32  17  54 W23       29.89F WCI  19
GREAT FALLS    FAIR      39  13  34 SW28G39   29.96F WCI  28
MALMSTROM AFB  FAIR      40  14  34 SW23G40   29.97R
HELENA         FAIR      27  19  72 W5        30.10S
BOWMANS CRNR   FAIR      31  15  50 S20       29.98F WCI  19
CHOTEAU          N/A     34  16  47 S8G14     29.97F WCI  27
FAIRFIELD      FAIR      35  15  42 S23G30    29.96F WCI  23
POWER          FAIR      37  13  38 SW21G29   29.96F WCI  26
RAYNESFORD     MOCLDY    46  10  23 SW30G40   29.92F
ULM            MOCLDY    35  17  47 SW12      30.01F WCI  27
$$

MTZ011-013-016-021-045-047-050-051-190900-
NORTH CENTRAL MONTANA

CITY           SKY/WX    TMP DP  RH WIND       PRES   REMARKS
HAVRE          FAIR      33  21  61 SW15      29.92F WCI  23
LEWISTOWN      FAIR      31  16  54 SW10      29.96F WCI  22
N BAR RANCH    FAIR      27  12  54 NW8       29.98F WCI  18
CHINOOK          N/A     28  21  74 W7        29.92F WCI  21
DENTON         FAIR      37  14  38 W16       29.90F WCI  28
GEYSER         FAIR      39  12  32 W14       29.92F WCI  31
GRASS RANGE    FAIR      35  14  42 W17       29.92F WCI  24
STANFORD       FAIR      32  11  41 NE8       29.93F WCI  25
WINIFRED       FAIR      33  14  45 SW7       29.94F WCI  27
$$

MTZ017>020-022>027-061-062-190900-
NORTHEAST MONTANA

CITY           SKY/WX    TMP DP  RH WIND       PRES   REMARKS
GLASGOW        FAIR      26  19  74 NW3       29.94F
GLENDIVE       FAIR      31  23  72 SW10      29.97F WCI  22
JORDAN           N/A     25  20  81 W5        29.96F
SIDNEY         FAIR      23  19  85 S8        29.97F WCI  14
WOLF POINT     FAIR      20  16  84 NW5       29.96S
MALTA          CLEAR     19  18  93 W6        29.95S WCI  11
PLENTYWOOD       N/A     28  21  74 CALM      29.90F
POPLAR           N/A     25  19  80 N3        29.95F
$$

MTZ028>42-056>058-190900-
SOUTHCENTRAL AND SOUTHEAST MONTANA

CITY           SKY/WX    TMP DP  RH WIND       PRES   REMARKS
BAKER          FAIR      31  21  66 SW12      30.00F WCI  22
BILLINGS       FAIR      37  17  44 W20       30.03F WCI  27
LIVINGSTON     FAIR      34  17  50 SW29G40   30.06F WCI  20
MILES CITY     FAIR      27  23  85 S6        30.00F WCI  20
BIG TIMBER     CLEAR     34  16  47 W24       30.07F WCI  21
FORSYTH          N/A     36  18  48 SW5       30.01F
HARLOWTON      FAIR      34  18  51 W32G38    29.97F WCI  20
LAUREL           N/A     36  16  44 SW14      30.04F WCI  27
ROUNDUP          N/A     35  15  44 S15       29.91F WCI  25
$$

REGIONAL REPORTS...DAKOTAS

CITY           SKY/WX    TMP DP  RH WIND       PRES   REMARKS
WILLISTON      FAIR      22  18  85 E3        29.95F
MINOT          FAIR      21  16  81 SW8       29.94F WCI  11
DICKINSON      FAIR      26  20  77 S12       29.97F WCI  16
BEACH          FAIR      28  21  74 SW12      30.00F WCI  18
CROSBY         FAIR      23  21  93 S12       29.90F WCI  12
TIOGA          FAIR      27  23  86 W8        29.93F WCI  18
BISMARCK       FAIR      16  13  88 CALM      30.02F
GRAND FORKS    FAIR      11   7  84 SW6       30.02F WCI   1
FARGO          FAIR      12   8  84 CALM      30.05F
BUFFALO SD       N/A     26  18  71 W13       29.96F WCI  15
RAPID CITY     FAIR      22  14  71 NW6       30.10F WCI  14
$$

REGIONAL REPORTS...WYOMING/IDAHO/WASHINGTON

CITY           SKY/WX    TMP DP  RH WIND       PRES   REMARKS
GILLETTE       FAIR      33  17  51 SW15      30.06F WCI  23
SHERIDAN       FAIR      22  17  81 E3        30.04F
BUFFALO WY     FAIR      33  12  41 SW5       30.04F
CODY           FAIR      32  14  47 VRB7      30.11F WCI  26
YELLOWSTONE LA   N/A     16  13  88 CALM      30.27S
IDAHO FALLS    FAIR      23  20  88 N5        30.33F
SALMON         FAIR      23  19  85 CALM      30.28S
BOISE          FAIR      33  23  66 S10       30.25F WCI  25
SPOKANE        MOCLDY    32  31  96 CALM      30.12F
$$

REGIONAL REPORTS...ALBERTA

CITY           SKY/WX    TMP DP  RH WIND       PRES   REMARKS
EDMONTON       CLEAR     18  14  86 CALM      29.72F
CALGARY        MOCLDY    34  16  47 SW8       29.73F WCI  27
LETHBRIDGE     CLEAR     39  19  45 W24G33    29.85F WCI  28
MEDICINE HAT   CLEAR     28  21  74 SW10      29.86F WCI  19
$$

REGIONAL REPORTS...SASKATCHEWAN

CITY           SKY/WX    TMP DP  RH WIND       PRES   REMARKS
SWIFT CURRENT  CLEAR     30  21  69 W18       29.80F WCI  18
REGINA         CLOUDY    14  10  85 S6        29.83F WCI   5
SASKATOON      MOCLDY    10   7  85 S3        29.81F
$$




USA.gov is the U.S. government's official web portal to all federal, state and local government web resources and services.